Location: Monteux
(44.0348°N, 4.9972°E)
Time: 17:50:37
(UTC+00:00)

SKYMED 2 - Pass Details

Date: 30 November 2020
Orbit: 621 x 623 km, 97.9° (Epoch: 18 January)

Event Time Altitude Azimuth Distance (km) Brightness Sun altitude
Exits shadow 17:53:57 16° 12° (NNE) 1,657 5.5 -19.3°
Maximum altitude 17:57:28 88° 285° (WNW) 630 3.5 -19.9°
Drops below altitude 10° 18:01:48 10° 195° (SSW) 1,987 6.5 -20.7°
Sets 18:03:59 0° 195° (SSW) 2,888 7.3 -21.1°
